Terminal Aerodrome Forecast
Issued by NWS Austin/San Antonio, TX

Home | Current Version | Previous Version | Text Only | Print | Product List | Glossary On
Versions: 1 2 3 4 5 6 7 8 9 10 11 12 13 14
000
FTUS44 KEWX 012300 RRA
TAFDRT
TAF
KDRT 012347Z 0200/0224 12009KT P6SM FEW250
     FM021000 11005KT P6SM OVC007
     FM021500 14010KT P6SM OVC015
     FM021700 14010KT P6SM SCT050
     FM022300 23005KT P6SM VCTS BKN035CB=

USA.gov is the U.S. government's official web portal to all federal, state and local government web resources and services.